Satellite: CO-58
Catalog number: 28895
Epoch time:      07173.74326595
Element set:     757
Inclination:      098.1339 deg
RA of node:       070.4922 deg
Eccentricity:    0.0019078
Arg of perigee:   094.1142 deg
Mean anomaly:     266.2262 deg
Mean motion:   14.59561714 rev/day
Decay rate:        5.3e-07 rev/day^2
Epoch rev:            8790
Checksum:              338

Satellite: NCUBE2
Catalog number: 28897
Epoch time:      07172.65215800
Element set:    0283
Inclination:      098.1319 deg
RA of node:       069.3786 deg
Eccentricity:    0.0018203
Arg of perigee:   098.6818 deg
Mean anomaly:     261.6445 deg
Mean motion:   14.59724697 rev/day
Decay rate:       1.38e-06 rev/day^2
Epoch rev:           08002
Checksum:              330

Satellite: NMARS
Catalog number: 29662
Epoch time:      07126.39603970
Element set:     263
Inclination:      051.6121 deg
RA of node:       302.3682 deg
Eccentricity:    0.0004459
Arg of perigee:   252.1654 deg
Mean anomaly:     110.7411 deg
Mean motion:   16.47981436 rev/day
Decay rate:   7.031946e-02 rev/day^2
Epoch rev:            2165
Checksum:              289

Satellite: FCAL
Catalog number: 29667
Epoch time:      07173.67609717
Element set:     182
Inclination:      051.6326 deg
RA of node:       065.5058 deg
Eccentricity:    0.0014060
Arg of perigee:   012.5247 deg
Mean anomaly:     347.6129 deg
Mean motion:   15.88381746 rev/day
Decay rate:      8.417e-05 rev/day^2
Epoch rev:            2887
Checksum:              322

Satellite: FALCON
Catalog number: 30776
Epoch time:      07172.43951654
Element set:    0087
Inclination:      035.4328 deg
RA of node:       186.8855 deg
Eccentricity:    0.0000289
Arg of perigee:   104.5722 deg
Mean anomaly:     255.5026 deg
Mean motion:   15.02724230 rev/day
Decay rate:       1.34e-06 rev/day^2
Epoch rev:           01569
Checksum:              287

Satellite: MAST
Catalog number: 31126
Epoch time:      07172.80197083
Element set:    0062
Inclination:      098.0820 deg
RA of node:       245.7584 deg
Eccentricity:    0.0095222
Arg of perigee:   011.9213 deg
Mean anomaly:     348.4193 deg
Mean motion:   14.53347815 rev/day
Decay rate:       3.94e-06 rev/day^2
Epoch rev:           00952
Checksum:              287

Satellite: CAPE1
Catalog number: 31130
Epoch time:      07172.93797387
Element set:    0053
Inclination:      098.0858 deg
RA of node:       245.7395 deg
Eccentricity:    0.0102766
Arg of perigee:   012.2384 deg
Mean anomaly:     348.1274 deg
Mean motion:   14.51860008 rev/day
Decay rate:       -4.6e-07 rev/day^2
Epoch rev:           00930
Checksum:              297

/EX






More information about the Keps mailing list